Cherokee Observed Data For Previous 48 Hours

Caption
Day and Hour Reservoir Elevation (behind dam)* Tailwater Elevation (below dam)* Average Hourly Discharge*
12/11/2018 2 AM EST 1,046.51 926.56 9,287
12/11/2018 3 AM EST 1,046.51 926.55 9,333
12/11/2018 4 AM EST 1,046.51 926.55 9,312
12/11/2018 5 AM EST 1,046.51 926.53 9,310
12/11/2018 6 AM EST 1,046.50 926.53 9,291
12/11/2018 7 AM EST 1,046.50 926.57 9,294
12/11/2018 8 AM EST 1,046.50 926.57 9,314
12/11/2018 9 AM EST 1,046.49 926.55 9,300
12/11/2018 10 AM EST 1,046.49 926.54 9,259
12/11/2018 11 AM EST 1,046.49 926.53 9,247
12/11/2018 12 PM EST 1,046.48 926.57 9,245
12/11/2018 1 PM EST 1,046.47 926.55 9,237
12/11/2018 2 PM EST 1,046.47 926.52 9,216
12/11/2018 3 PM EST 1,046.46 926.52 9,223
12/11/2018 4 PM EST 1,046.45 926.55 9,240
12/11/2018 5 PM EST 1,046.45 926.56 9,281
12/11/2018 6 PM EST 1,046.45 926.57 9,271
12/11/2018 7 PM EST 1,046.45 926.58 9,295
12/11/2018 8 PM EST 1,046.45 926.55 9,278
12/11/2018 9 PM EST 1,046.44 926.57 9,295
12/11/2018 10 PM EST 1,046.43 926.55 9,274
12/11/2018 11 PM EST 1,046.43 926.55 9,289
12/12/2018 12 AM EST 1,046.43 926.56 9,325
12/12/2018 1 AM EST 1,046.42 926.56 9,328
12/12/2018 2 AM EST 1,046.42 926.56 9,333
12/12/2018 3 AM EST 1,046.41 926.56 9,292
12/12/2018 4 AM EST 1,046.41 926.57 9,291
12/12/2018 5 AM EST 1,046.40 926.57 9,277
12/12/2018 6 AM EST 1,046.41 926.54 9,236
12/12/2018 7 AM EST 1,046.39 926.55 9,278
12/12/2018 8 AM EST 1,046.39 926.56 9,267
12/12/2018 9 AM EST 1,046.39 926.53 9,227
12/12/2018 10 AM EST 1,046.38 926.55 9,228
12/12/2018 11 AM EST 1,046.37 926.57 9,227
12/12/2018 12 PM EST 1,046.35 926.53 9,241
12/12/2018 1 PM EST 1,046.35 926.56 9,223
12/12/2018 2 PM EST 1,046.35 926.56 9,263
12/12/2018 3 PM EST 1,046.35 926.54 9,293
12/12/2018 4 PM EST 1,046.34 926.56 9,313
12/12/2018 5 PM EST 1,046.32 926.56 9,295
12/12/2018 6 PM EST 1,046.33 926.55 9,310
12/12/2018 7 PM EST 1,046.31 926.56 9,285
12/12/2018 8 PM EST 1,046.31 926.59 9,294
12/12/2018 9 PM EST 1,046.29 926.56 9,301
12/12/2018 10 PM EST 1,046.29 926.58 9,279
12/12/2018 11 PM EST 1,046.27 926.53 9,246
12/13/2018 12 AM EST 1,046.27 926.54 9,308
12/13/2018 1 AM EST 1,046.27 926.54 9,222
12/13/2018 2 AM EST 1,046.26 926.54 9,239
12/13/2018 3 AM EST 1,046.25 926.56 9,239
12/13/2018 4 AM EST 1,046.26 926.55 9,244
12/13/2018 5 AM EST 1,046.25 926.56 9,233
12/13/2018 6 AM EST 1,046.24 926.56 9,252
12/13/2018 7 AM EST 1,046.23 926.55 9,251
12/13/2018 8 AM EST 1,046.21 926.54 9,244
12/13/2018 9 AM EST 1,046.21 926.56 9,249
12/13/2018 10 AM EST 1,046.21 926.54 9,249
12/13/2018 11 AM EST 1,046.19 926.55 9,255
12/13/2018 12 PM EST 1,046.18 926.54 9,244
12/13/2018 1 PM EST 1,046.17 926.57 9,301
12/13/2018 2 PM EST 1,046.16 926.56 9,285
12/13/2018 3 PM EST 1,046.15 926.56 9,289
12/13/2018 4 PM EST 1,046.15 926.56 9,285
12/13/2018 5 PM EST 1,046.15 926.59 9,352

Elevations are in feet above sea level. Discharges are in cubic feet per second and are reported at the end of the hour.